Location: Noordwijk
(52.2400°N, 4.4500°E)
Time: 12:43:56
(UTC+00:00)

VELOX 1 - Pass Details

Date: 03 December 2022
Orbit: 621 x 635 km, 98.4° (Epoch: 29 January)

Event Time Altitude Azimuth Distance (km) Brightness Sun altitude
Rises 04:39:27 0° 167° (SSE) 2,924 ? -25.2°
Reaches altitude 10° 04:41:39 10° 169° (S) 2,018 ? -24.9°
Enters shadow 04:45:12 57° 188° (S) 751 ? -24.3°
